owner,sensor,date,latitude,longitude,vertical_datum,sea_water_temperature,qcFlag 
WAVCIS,ioos:station:WAVCIS:CSI03:1,2017-03-01T00:00:00Z,29.4412,-92.0613,10.0,-12.39,11144222 
WAVCIS,ioos:station:WAVCIS:CSI03:1,2017-03-01T01:00:00Z,29.4412,-92.0613,10.0,-12.78,11144222 
WAVCIS,ioos:station:WAVCIS:CSI03:1,2017-03-01T02:00:00Z,29.4412,-92.0613,10.0,-12.0,11144222 
WAVCIS,ioos:station:WAVCIS:CSI03:1,2017-03-01T03:00:00Z,29.4412,-92.0613,10.0,-11.99,11144222 
WAVCIS,ioos:station:WAVCIS:CSI03:1,2017-03-01T04:00:00Z,29.4412,-92.0613,10.0,-11.74,11144222 
WAVCIS,ioos:station:WAVCIS:CSI03:1,2017-03-01T05:00:00Z,29.4412,-92.0613,10.0,-11.61,11144222 
WAVCIS,ioos:station:WAVCIS:CSI03:1,2017-03-01T06:00:00Z,29.4412,-92.0613,10.0,-11.79,11144222 
WAVCIS,ioos:station:WAVCIS:CSI03:1,2017-03-01T07:00:00Z,29.4412,-92.0613,10.0,-11.35,11144222 
WAVCIS,ioos:station:WAVCIS:CSI03:1,2017-03-01T08:00:00Z,29.4412,-92.0613,10.0,-13.17,11144222 
WAVCIS,ioos:station:WAVCIS:CSI03:1,2017-03-01T09:00:00Z,29.4412,-92.0613,10.0,-13.5,11144222 
WAVCIS,ioos:station:WAVCIS:CSI03:1,2017-03-01T10:00:00Z,29.4412,-92.0613,10.0,-13.34,11144222 
WAVCIS,ioos:station:WAVCIS:CSI03:1,2017-03-01T11:00:00Z,29.4412,-92.0613,10.0,-14.05,11144222 
WAVCIS,ioos:station:WAVCIS:CSI03:1,2017-03-01T12:00:00Z,29.4412,-92.0613,10.0,-15.16,11144222 
WAVCIS,ioos:station:WAVCIS:CSI03:1,2017-03-01T13:00:00Z,29.4412,-92.0613,10.0,-14.72,11144222 
WAVCIS,ioos:station:WAVCIS:CSI03:1,2017-03-01T14:00:00Z,29.4412,-92.0613,10.0,-14.8,11144222 
WAVCIS,ioos:station:WAVCIS:CSI03:1,2017-03-01T15:00:00Z,29.4412,-92.0613,10.0,-15.01,11144222 
WAVCIS,ioos:station:WAVCIS:CSI03:1,2017-03-01T16:00:00Z,29.4412,-92.0613,10.0,-15.7,11144222 
WAVCIS,ioos:station:WAVCIS:CSI03:1,2017-03-01T17:00:00Z,29.4412,-92.0613,10.0,-16.25,11144222 
WAVCIS,ioos:station:WAVCIS:CSI03:1,2017-03-01T18:00:00Z,29.4412,-92.0613,10.0,-15.81,11144222 
WAVCIS,ioos:station:WAVCIS:CSI03:1,2017-03-01T19:00:00Z,29.4412,-92.0613,10.0,-15.52,11144222 
WAVCIS,ioos:station:WAVCIS:CSI03:1,2017-03-01T20:00:00Z,29.4412,-92.0613,10.0,-17.21,11144222 
WAVCIS,ioos:station:WAVCIS:CSI03:1,2017-03-01T21:00:00Z,29.4412,-92.0613,10.0,-16.15,11144222 
WAVCIS,ioos:station:WAVCIS:CSI03:1,2017-03-01T22:00:00Z,29.4412,-92.0613,10.0,-16.29,11144222 
WAVCIS,ioos:station:WAVCIS:CSI03:1,2017-03-01T23:00:00Z,29.4412,-92.0613,10.0,-15.99,11144222 
WAVCIS,ioos:station:WAVCIS:CSI03:1,2017-03-02T00:00:00Z,29.4412,-92.0613,10.0,-15.22,11144222 
WAVCIS,ioos:station:WAVCIS:CSI03:1,2017-03-02T01:00:00Z,29.4412,-92.0613,10.0,-15.82,11144222 
WAVCIS,ioos:station:WAVCIS:CSI03:1,2017-03-02T02:00:00Z,29.4412,-92.0613,10.0,-15.27,11144222 
WAVCIS,ioos:station:WAVCIS:CSI03:1,2017-03-02T03:00:00Z,29.4412,-92.0613,10.0,-14.55,11144222 
WAVCIS,ioos:station:WAVCIS:CSI03:1,2017-03-02T04:00:00Z,29.4412,-92.0613,10.0,-12.93,11144222 
WAVCIS,ioos:station:WAVCIS:CSI03:1,2017-03-02T05:00:00Z,29.4412,-92.0613,10.0,-12.58,11144222 
WAVCIS,ioos:station:WAVCIS:CSI03:1,2017-03-02T06:00:00Z,29.4412,-92.0613,10.0,-11.86,11144222 
WAVCIS,ioos:station:WAVCIS:CSI03:1,2017-03-02T07:00:00Z,29.4412,-92.0613,10.0,-12.19,11144222 
WAVCIS,ioos:station:WAVCIS:CSI03:1,2017-03-02T08:00:00Z,29.4412,-92.0613,10.0,-12.43,11144222 
WAVCIS,ioos:station:WAVCIS:CSI03:1,2017-03-02T09:00:00Z,29.4412,-92.0613,10.0,-12.5,11144222 
WAVCIS,ioos:station:WAVCIS:CSI03:1,2017-03-02T10:00:00Z,29.4412,-92.0613,10.0,-12.4,11144222 
WAVCIS,ioos:station:WAVCIS:CSI03:1,2017-03-02T11:00:00Z,29.4412,-92.0613,10.0,-12.36,11144222 
WAVCIS,ioos:station:WAVCIS:CSI03:1,2017-03-02T12:00:00Z,29.4412,-92.0613,10.0,-12.55,11144222 
WAVCIS,ioos:station:WAVCIS:CSI03:1,2017-03-02T13:00:00Z,29.4412,-92.0613,10.0,-12.55,11144222 
WAVCIS,ioos:station:WAVCIS:CSI03:1,2017-03-02T14:00:00Z,29.4412,-92.0613,10.0,-12.5,11144222 
WAVCIS,ioos:station:WAVCIS:CSI03:1,2017-03-02T15:00:00Z,29.4412,-92.0613,10.0,-12.22,11144222 
WAVCIS,ioos:station:WAVCIS:CSI03:1,2017-03-02T16:00:00Z,29.4412,-92.0613,10.0,-12.3,11144222 
WAVCIS,ioos:station:WAVCIS:CSI03:1,2017-03-02T17:00:00Z,29.4412,-92.0613,10.0,-12.61,11144222 
WAVCIS,ioos:station:WAVCIS:CSI03:1,2017-03-02T18:00:00Z,29.4412,-92.0613,10.0,-12.73,11144222 
WAVCIS,ioos:station:WAVCIS:CSI03:1,2017-03-02T19:00:00Z,29.4412,-92.0613,10.0,-12.66,11144222 
WAVCIS,ioos:station:WAVCIS:CSI03:1,2017-03-02T20:00:00Z,29.4412,-92.0613,10.0,-13.08,11144222 
WAVCIS,ioos:station:WAVCIS:CSI03:1,2017-03-02T21:00:00Z,29.4412,-92.0613,10.0,-12.45,11144222 
WAVCIS,ioos:station:WAVCIS:CSI03:1,2017-03-02T22:00:00Z,29.4412,-92.0613,10.0,-13.53,11144222 
WAVCIS,ioos:station:WAVCIS:CSI03:1,2017-03-02T23:00:00Z,29.4412,-92.0613,10.0,-14.04,11144222 
WAVCIS,ioos:station:WAVCIS:CSI03:1,2017-03-03T00:00:00Z,29.4412,-92.0613,10.0,-14.21,11144222 
WAVCIS,ioos:station:WAVCIS:CSI03:1,2017-03-03T01:00:00Z,29.4412,-92.0613,10.0,-13.35,11144222 
WAVCIS,ioos:station:WAVCIS:CSI03:1,2017-03-03T02:00:00Z,29.4412,-92.0613,10.0,-13.98,11144222 
WAVCIS,ioos:station:WAVCIS:CSI03:1,2017-03-03T03:00:00Z,29.4412,-92.0613,10.0,-14.42,11144222 
WAVCIS,ioos:station:WAVCIS:CSI03:1,2017-03-03T04:00:00Z,29.4412,-92.0613,10.0,-14.25,11144222 
WAVCIS,ioos:station:WAVCIS:CSI03:1,2017-03-03T05:00:00Z,29.4412,-92.0613,10.0,-14.18,11144222 
WAVCIS,ioos:station:WAVCIS:CSI03:1,2017-03-03T06:00:00Z,29.4412,-92.0613,10.0,-13.41,11144222 
WAVCIS,ioos:station:WAVCIS:CSI03:1,2017-03-03T07:00:00Z,29.4412,-92.0613,10.0,-13.33,11144222 
WAVCIS,ioos:station:WAVCIS:CSI03:1,2017-03-03T08:00:00Z,29.4412,-92.0613,10.0,-13.46,11144222 
WAVCIS,ioos:station:WAVCIS:CSI03:1,2017-03-03T09:00:00Z,29.4412,-92.0613,10.0,-13.29,11144222 
WAVCIS,ioos:station:WAVCIS:CSI03:1,2017-03-03T10:00:00Z,29.4412,-92.0613,10.0,-13.53,11144222 
WAVCIS,ioos:station:WAVCIS:CSI03:1,2017-03-03T11:00:00Z,29.4412,-92.0613,10.0,-13.81,11144222 
WAVCIS,ioos:station:WAVCIS:CSI03:1,2017-03-03T12:00:00Z,29.4412,-92.0613,10.0,-13.44,11144222 
WAVCIS,ioos:station:WAVCIS:CSI03:1,2017-03-03T13:00:00Z,29.4412,-92.0613,10.0,-12.93,11144222 
WAVCIS,ioos:station:WAVCIS:CSI03:1,2017-03-03T14:00:00Z,29.4412,-92.0613,10.0,-13.1,11144222 
WAVCIS,ioos:station:WAVCIS:CSI03:1,2017-03-03T15:00:00Z,29.4412,-92.0613,10.0,-13.17,11144222 
WAVCIS,ioos:station:WAVCIS:CSI03:1,2017-03-03T16:00:00Z,29.4412,-92.0613,10.0,-13.77,11144222 
WAVCIS,ioos:station:WAVCIS:CSI03:1,2017-03-03T17:00:00Z,29.4412,-92.0613,10.0,-13.31,11144222 
WAVCIS,ioos:station:WAVCIS:CSI03:1,2017-03-03T18:00:00Z,29.4412,-92.0613,10.0,-13.04,11144222 
WAVCIS,ioos:station:WAVCIS:CSI03:1,2017-03-03T19:00:00Z,29.4412,-92.0613,10.0,-13.12,11144222 
WAVCIS,ioos:station:WAVCIS:CSI03:1,2017-03-03T20:00:00Z,29.4412,-92.0613,10.0,-13.61,11144222 
WAVCIS,ioos:station:WAVCIS:CSI03:1,2017-03-03T21:00:00Z,29.4412,-92.0613,10.0,-14.21,11144222 
WAVCIS,ioos:station:WAVCIS:CSI03:1,2017-03-03T22:00:00Z,29.4412,-92.0613,10.0,-13.77,11144222 
WAVCIS,ioos:station:WAVCIS:CSI03:1,2017-03-03T23:00:00Z,29.4412,-92.0613,10.0,-14.09,11144222 
WAVCIS,ioos:station:WAVCIS:CSI03:1,2017-03-04T00:00:00Z,29.4412,-92.0613,10.0,-14.04,11144222 
WAVCIS,ioos:station:WAVCIS:CSI03:1,2017-03-04T01:00:00Z,29.4412,-92.0613,10.0,-14.48,11144222 
WAVCIS,ioos:station:WAVCIS:CSI03:1,2017-03-04T02:00:00Z,29.4412,-92.0613,10.0,-14.88,11144222 
WAVCIS,ioos:station:WAVCIS:CSI03:1,2017-03-04T03:00:00Z,29.4412,-92.0613,10.0,-15.18,11144222 
WAVCIS,ioos:station:WAVCIS:CSI03:1,2017-03-04T04:00:00Z,29.4412,-92.0613,10.0,-15.15,11144222 
WAVCIS,ioos:station:WAVCIS:CSI03:1,2017-03-04T05:00:00Z,29.4412,-92.0613,10.0,-15.14,11144222 
WAVCIS,ioos:station:WAVCIS:CSI03:1,2017-03-04T06:00:00Z,29.4412,-92.0613,10.0,-15.38,11144222 
WAVCIS,ioos:station:WAVCIS:CSI03:1,2017-03-04T07:00:00Z,29.4412,-92.0613,10.0,-15.02,11144222 
WAVCIS,ioos:station:WAVCIS:CSI03:1,2017-03-04T08:00:00Z,29.4412,-92.0613,10.0,-15.16,11144222 
WAVCIS,ioos:station:WAVCIS:CSI03:1,2017-03-04T09:00:00Z,29.4412,-92.0613,10.0,-15.09,11144222 
WAVCIS,ioos:station:WAVCIS:CSI03:1,2017-03-04T10:00:00Z,29.4412,-92.0613,10.0,-15.5,11144222 
WAVCIS,ioos:station:WAVCIS:CSI03:1,2017-03-04T11:00:00Z,29.4412,-92.0613,10.0,-15.52,11144222 
WAVCIS,ioos:station:WAVCIS:CSI03:1,2017-03-04T12:00:00Z,29.4412,-92.0613,10.0,-14.44,11144222 
WAVCIS,ioos:station:WAVCIS:CSI03:1,2017-03-04T13:00:00Z,29.4412,-92.0613,10.0,-14.98,11144222 
WAVCIS,ioos:station:WAVCIS:CSI03:1,2017-03-04T14:00:00Z,29.4412,-92.0613,10.0,-15.54,11144222 
WAVCIS,ioos:station:WAVCIS:CSI03:1,2017-03-04T15:00:00Z,29.4412,-92.0613,10.0,-15.35,11144222 
WAVCIS,ioos:station:WAVCIS:CSI03:1,2017-03-04T16:00:00Z,29.4412,-92.0613,10.0,-15.54,11144222 
WAVCIS,ioos:station:WAVCIS:CSI03:1,2017-03-04T17:00:00Z,29.4412,-92.0613,10.0,-15.56,11144222 
WAVCIS,ioos:station:WAVCIS:CSI03:1,2017-03-04T18:00:00Z,29.4412,-92.0613,10.0,-15.77,11144222 
WAVCIS,ioos:station:WAVCIS:CSI03:1,2017-03-04T19:00:00Z,29.4412,-92.0613,10.0,-15.74,11144222 
WAVCIS,ioos:station:WAVCIS:CSI03:1,2017-03-04T20:00:00Z,29.4412,-92.0613,10.0,-16.1,11144222 
WAVCIS,ioos:station:WAVCIS:CSI03:1,2017-03-04T21:00:00Z,29.4412,-92.0613,10.0,-15.5,11144222 
WAVCIS,ioos:station:WAVCIS:CSI03:1,2017-03-04T22:00:00Z,29.4412,-92.0613,10.0,-15.32,11144222 
WAVCIS,ioos:station:WAVCIS:CSI03:1,2017-03-04T23:00:00Z,29.4412,-92.0613,10.0,-15.51,11144222 
WAVCIS,ioos:station:WAVCIS:CSI03:1,2017-03-05T00:00:00Z,29.4412,-92.0613,10.0,-15.76,11144222 
WAVCIS,ioos:station:WAVCIS:CSI03:1,2017-03-05T01:00:00Z,29.4412,-92.0613,10.0,-15.94,11144222 
WAVCIS,ioos:station:WAVCIS:CSI03:1,2017-03-05T02:00:00Z,29.4412,-92.0613,10.0,-15.53,11144222 
WAVCIS,ioos:station:WAVCIS:CSI03:1,2017-03-05T03:00:00Z,29.4412,-92.0613,10.0,-15.5,11144222 
WAVCIS,ioos:station:WAVCIS:CSI03:1,2017-03-05T04:00:00Z,29.4412,-92.0613,10.0,-15.73,11144222 
WAVCIS,ioos:station:WAVCIS:CSI03:1,2017-03-05T05:00:00Z,29.4412,-92.0613,10.0,-15.85,11144222 
WAVCIS,ioos:station:WAVCIS:CSI03:1,2017-03-05T06:00:00Z,29.4412,-92.0613,10.0,-15.93,11144222 
WAVCIS,ioos:station:WAVCIS:CSI03:1,2017-03-05T07:00:00Z,29.4412,-92.0613,10.0,-15.06,11144222 
WAVCIS,ioos:station:WAVCIS:CSI03:1,2017-03-05T08:00:00Z,29.4412,-92.0613,10.0,-14.97,11144222 
WAVCIS,ioos:station:WAVCIS:CSI03:1,2017-03-05T09:00:00Z,29.4412,-92.0613,10.0,-15.26,11144222 
WAVCIS,ioos:station:WAVCIS:CSI03:1,2017-03-05T10:00:00Z,29.4412,-92.0613,10.0,-14.98,11144222 
WAVCIS,ioos:station:WAVCIS:CSI03:1,2017-03-05T11:00:00Z,29.4412,-92.0613,10.0,-15.02,11144222 
WAVCIS,ioos:station:WAVCIS:CSI03:1,2017-03-05T12:00:00Z,29.4412,-92.0613,10.0,-15.01,11144222 
WAVCIS,ioos:station:WAVCIS:CSI03:1,2017-03-05T13:00:00Z,29.4412,-92.0613,10.0,-15.25,11144222 
WAVCIS,ioos:station:WAVCIS:CSI03:1,2017-03-05T14:00:00Z,29.4412,-92.0613,10.0,-15.15,11144222 
WAVCIS,ioos:station:WAVCIS:CSI03:1,2017-03-05T15:00:00Z,29.4412,-92.0613,10.0,-15.57,11144222 
WAVCIS,ioos:station:WAVCIS:CSI03:1,2017-03-05T16:00:00Z,29.4412,-92.0613,10.0,-15.67,11144222 
WAVCIS,ioos:station:WAVCIS:CSI03:1,2017-03-05T17:00:00Z,29.4412,-92.0613,10.0,-15.88,11144222 
WAVCIS,ioos:station:WAVCIS:CSI03:1,2017-03-05T18:00:00Z,29.4412,-92.0613,10.0,-15.61,11144222 
WAVCIS,ioos:station:WAVCIS:CSI03:1,2017-03-05T19:00:00Z,29.4412,-92.0613,10.0,-15.98,11144222 
WAVCIS,ioos:station:WAVCIS:CSI03:1,2017-03-05T20:00:00Z,29.4412,-92.0613,10.0,-16.08,11144222 
WAVCIS,ioos:station:WAVCIS:CSI03:1,2017-03-05T21:00:00Z,29.4412,-92.0613,10.0,-15.55,11144222 
WAVCIS,ioos:station:WAVCIS:CSI03:1,2017-03-05T22:00:00Z,29.4412,-92.0613,10.0,-15.79,11144222 
WAVCIS,ioos:station:WAVCIS:CSI03:1,2017-03-05T23:00:00Z,29.4412,-92.0613,10.0,-16.25,11144222 
WAVCIS,ioos:station:WAVCIS:CSI03:1,2017-03-06T00:00:00Z,29.4412,-92.0613,10.0,-15.31,11144222 
WAVCIS,ioos:station:WAVCIS:CSI03:1,2017-03-06T01:00:00Z,29.4412,-92.0613,10.0,-15.6,11144222 
WAVCIS,ioos:station:WAVCIS:CSI03:1,2017-03-06T02:00:00Z,29.4412,-92.0613,10.0,-15.7,11144222 
WAVCIS,ioos:station:WAVCIS:CSI03:1,2017-03-06T03:00:00Z,29.4412,-92.0613,10.0,-15.9,11144222 
WAVCIS,ioos:station:WAVCIS:CSI03:1,2017-03-06T04:00:00Z,29.4412,-92.0613,10.0,-16.06,11144222 
WAVCIS,ioos:station:WAVCIS:CSI03:1,2017-03-06T05:00:00Z,29.4412,-92.0613,10.0,-16.13,11144222 
WAVCIS,ioos:station:WAVCIS:CSI03:1,2017-03-06T06:00:00Z,29.4412,-92.0613,10.0,-16.07,11144222 
WAVCIS,ioos:station:WAVCIS:CSI03:1,2017-03-06T07:00:00Z,29.4412,-92.0613,10.0,-16.5,11144222 
WAVCIS,ioos:station:WAVCIS:CSI03:1,2017-03-06T08:00:00Z,29.4412,-92.0613,10.0,-16.17,11144222 
WAVCIS,ioos:station:WAVCIS:CSI03:1,2017-03-06T09:00:00Z,29.4412,-92.0613,10.0,-16.88,11144222 
WAVCIS,ioos:station:WAVCIS:CSI03:1,2017-03-06T10:00:00Z,29.4412,-92.0613,10.0,-16.89,11144222 
WAVCIS,ioos:station:WAVCIS:CSI03:1,2017-03-06T11:00:00Z,29.4412,-92.0613,10.0,-16.42,11144222 
WAVCIS,ioos:station:WAVCIS:CSI03:1,2017-03-06T12:00:00Z,29.4412,-92.0613,10.0,-16.39,11144222 
WAVCIS,ioos:station:WAVCIS:CSI03:1,2017-03-06T13:00:00Z,29.4412,-92.0613,10.0,-16.45,11144222 
WAVCIS,ioos:station:WAVCIS:CSI03:1,2017-03-06T14:00:00Z,29.4412,-92.0613,10.0,-15.61,11144222 
WAVCIS,ioos:station:WAVCIS:CSI03:1,2017-03-06T15:00:00Z,29.4412,-92.0613,10.0,-15.32,11144222 
WAVCIS,ioos:station:WAVCIS:CSI03:1,2017-03-06T16:00:00Z,29.4412,-92.0613,10.0,-15.86,11144222 
WAVCIS,ioos:station:WAVCIS:CSI03:1,2017-03-06T17:00:00Z,29.4412,-92.0613,10.0,-16.09,11144222 
WAVCIS,ioos:station:WAVCIS:CSI03:1,2017-03-06T18:00:00Z,29.4412,-92.0613,10.0,-15.81,11144222 
WAVCIS,ioos:station:WAVCIS:CSI03:1,2017-03-06T19:00:00Z,29.4412,-92.0613,10.0,-15.92,11144222 
WAVCIS,ioos:station:WAVCIS:CSI03:1,2017-03-06T20:00:00Z,29.4412,-92.0613,10.0,-15.92,11144222 
WAVCIS,ioos:station:WAVCIS:CSI03:1,2017-03-06T21:00:00Z,29.4412,-92.0613,10.0,-15.94,11144222 
WAVCIS,ioos:station:WAVCIS:CSI03:1,2017-03-06T22:00:00Z,29.4412,-92.0613,10.0,-16.12,11144222 
WAVCIS,ioos:station:WAVCIS:CSI03:1,2017-03-06T23:00:00Z,29.4412,-92.0613,10.0,-15.28,11144222 
WAVCIS,ioos:station:WAVCIS:CSI03:1,2017-03-07T00:00:00Z,29.4412,-92.0613,10.0,-15.6,11144222 
WAVCIS,ioos:station:WAVCIS:CSI03:1,2017-03-07T01:00:00Z,29.4412,-92.0613,10.0,-15.67,11144222 
WAVCIS,ioos:station:WAVCIS:CSI03:1,2017-03-07T02:00:00Z,29.4412,-92.0613,10.0,-15.57,11144222 
WAVCIS,ioos:station:WAVCIS:CSI03:1,2017-03-07T03:00:00Z,29.4412,-92.0613,10.0,-15.58,11144222 
WAVCIS,ioos:station:WAVCIS:CSI03:1,2017-03-07T04:00:00Z,29.4412,-92.0613,10.0,-15.35,11144222 
WAVCIS,ioos:station:WAVCIS:CSI03:1,2017-03-07T05:00:00Z,29.4412,-92.0613,10.0,-15.33,11144222 
WAVCIS,ioos:station:WAVCIS:CSI03:1,2017-03-07T06:00:00Z,29.4412,-92.0613,10.0,-15.38,11144222 
WAVCIS,ioos:station:WAVCIS:CSI03:1,2017-03-07T07:00:00Z,29.4412,-92.0613,10.0,-16.2,11144222 
WAVCIS,ioos:station:WAVCIS:CSI03:1,2017-03-07T08:00:00Z,29.4412,-92.0613,10.0,-15.77,11144222 
WAVCIS,ioos:station:WAVCIS:CSI03:1,2017-03-07T09:00:00Z,29.4412,-92.0613,10.0,-15.46,11144222 
WAVCIS,ioos:station:WAVCIS:CSI03:1,2017-03-07T10:00:00Z,29.4412,-92.0613,10.0,-15.22,11144222 
WAVCIS,ioos:station:WAVCIS:CSI03:1,2017-03-07T11:00:00Z,29.4412,-92.0613,10.0,-15.89,11144222 
WAVCIS,ioos:station:WAVCIS:CSI03:1,2017-03-07T12:00:00Z,29.4412,-92.0613,10.0,-15.78,11144222 
WAVCIS,ioos:station:WAVCIS:CSI03:1,2017-03-07T13:00:00Z,29.4412,-92.0613,10.0,-15.86,11144222 
WAVCIS,ioos:station:WAVCIS:CSI03:1,2017-03-07T14:00:00Z,29.4412,-92.0613,10.0,-15.17,11144222 
WAVCIS,ioos:station:WAVCIS:CSI03:1,2017-03-07T15:00:00Z,29.4412,-92.0613,10.0,-15.62,11144222 
WAVCIS,ioos:station:WAVCIS:CSI03:1,2017-03-07T16:00:00Z,29.4412,-92.0613,10.0,-15.92,11144222 
WAVCIS,ioos:station:WAVCIS:CSI03:1,2017-03-07T17:00:00Z,29.4412,-92.0613,10.0,-15.57,11144222 
WAVCIS,ioos:station:WAVCIS:CSI03:1,2017-03-07T18:00:00Z,29.4412,-92.0613,10.0,-15.91,11144222 
WAVCIS,ioos:station:WAVCIS:CSI03:1,2017-03-07T19:00:00Z,29.4412,-92.0613,10.0,-16.18,11144222 
WAVCIS,ioos:station:WAVCIS:CSI03:1,2017-03-07T20:00:00Z,29.4412,-92.0613,10.0,-16.04,11144222 
WAVCIS,ioos:station:WAVCIS:CSI03:1,2017-03-07T21:00:00Z,29.4412,-92.0613,10.0,-15.43,11144222 
WAVCIS,ioos:station:WAVCIS:CSI03:1,2017-03-07T22:00:00Z,29.4412,-92.0613,10.0,-15.87,11144222 
WAVCIS,ioos:station:WAVCIS:CSI03:1,2017-03-07T23:00:00Z,29.4412,-92.0613,10.0,-16.03,11144222 
WAVCIS,ioos:station:WAVCIS:CSI03:1,2017-03-08T00:00:00Z,29.4412,-92.0613,10.0,-15.88,11144222 
WAVCIS,ioos:station:WAVCIS:CSI03:1,2017-03-08T01:00:00Z,29.4412,-92.0613,10.0,-15.85,11144222 
WAVCIS,ioos:station:WAVCIS:CSI03:1,2017-03-08T02:00:00Z,29.4412,-92.0613,10.0,-15.86,11144222 
WAVCIS,ioos:station:WAVCIS:CSI03:1,2017-03-08T03:00:00Z,29.4412,-92.0613,10.0,-16.86,11144222 
WAVCIS,ioos:station:WAVCIS:CSI03:1,2017-03-08T04:00:00Z,29.4412,-92.0613,10.0,-16.79,11144222 
WAVCIS,ioos:station:WAVCIS:CSI03:1,2017-03-08T05:00:00Z,29.4412,-92.0613,10.0,-16.86,11144222 
WAVCIS,ioos:station:WAVCIS:CSI03:1,2017-03-08T06:00:00Z,29.4412,-92.0613,10.0,-15.76,11144222 
WAVCIS,ioos:station:WAVCIS:CSI03:1,2017-03-08T07:00:00Z,29.4412,-92.0613,10.0,-15.66,11144222 
WAVCIS,ioos:station:WAVCIS:CSI03:1,2017-03-08T08:00:00Z,29.4412,-92.0613,10.0,-16.37,11144222 
WAVCIS,ioos:station:WAVCIS:CSI03:1,2017-03-08T09:00:00Z,29.4412,-92.0613,10.0,-15.06,11144222 
WAVCIS,ioos:station:WAVCIS:CSI03:1,2017-03-08T10:00:00Z,29.4412,-92.0613,10.0,-14.58,11144222 
WAVCIS,ioos:station:WAVCIS:CSI03:1,2017-03-08T11:00:00Z,29.4412,-92.0613,10.0,-14.52,11144222 
WAVCIS,ioos:station:WAVCIS:CSI03:1,2017-03-08T12:00:00Z,29.4412,-92.0613,10.0,-13.91,11144222 
WAVCIS,ioos:station:WAVCIS:CSI03:1,2017-03-08T13:00:00Z,29.4412,-92.0613,10.0,-13.95,11144222 
WAVCIS,ioos:station:WAVCIS:CSI03:1,2017-03-08T14:00:00Z,29.4412,-92.0613,10.0,-14.73,11144222 
WAVCIS,ioos:station:WAVCIS:CSI03:1,2017-03-08T15:00:00Z,29.4412,-92.0613,10.0,-14.8,11144222 
WAVCIS,ioos:station:WAVCIS:CSI03:1,2017-03-08T16:00:00Z,29.4412,-92.0613,10.0,-14.86,11144222 
WAVCIS,ioos:station:WAVCIS:CSI03:1,2017-03-08T17:00:00Z,29.4412,-92.0613,10.0,-14.89,11144222 
WAVCIS,ioos:station:WAVCIS:CSI03:1,2017-03-08T18:00:00Z,29.4412,-92.0613,10.0,-14.63,11144222 
WAVCIS,ioos:station:WAVCIS:CSI03:1,2017-03-08T19:00:00Z,29.4412,-92.0613,10.0,-14.61,11144222 
WAVCIS,ioos:station:WAVCIS:CSI03:1,2017-03-08T20:00:00Z,29.4412,-92.0613,10.0,-14.75,11144222 
WAVCIS,ioos:station:WAVCIS:CSI03:1,2017-03-08T21:00:00Z,29.4412,-92.0613,10.0,-14.65,11144222 
WAVCIS,ioos:station:WAVCIS:CSI03:1,2017-03-08T22:00:00Z,29.4412,-92.0613,10.0,-14.56,11144222 
WAVCIS,ioos:station:WAVCIS:CSI03:1,2017-03-08T23:00:00Z,29.4412,-92.0613,10.0,-14.8,11144222 
WAVCIS,ioos:station:WAVCIS:CSI03:1,2017-03-09T00:00:00Z,29.4412,-92.0613,10.0,-15.3,11144222 
WAVCIS,ioos:station:WAVCIS:CSI03:1,2017-03-09T01:00:00Z,29.4412,-92.0613,10.0,-14.98,11144222 
WAVCIS,ioos:station:WAVCIS:CSI03:1,2017-03-09T02:00:00Z,29.4412,-92.0613,10.0,-15.65,11144222 
WAVCIS,ioos:station:WAVCIS:CSI03:1,2017-03-09T03:00:00Z,29.4412,-92.0613,10.0,-16.03,11144222 
WAVCIS,ioos:station:WAVCIS:CSI03:1,2017-03-09T04:00:00Z,29.4412,-92.0613,10.0,-15.27,11144222 
WAVCIS,ioos:station:WAVCIS:CSI03:1,2017-03-09T05:00:00Z,29.4412,-92.0613,10.0,-15.75,11144222 
WAVCIS,ioos:station:WAVCIS:CSI03:1,2017-03-09T06:00:00Z,29.4412,-92.0613,10.0,-15.17,11144222 
WAVCIS,ioos:station:WAVCIS:CSI03:1,2017-03-09T07:00:00Z,29.4412,-92.0613,10.0,-15.18,11144222 
WAVCIS,ioos:station:WAVCIS:CSI03:1,2017-03-09T08:00:00Z,29.4412,-92.0613,10.0,-15.34,11144222 
WAVCIS,ioos:station:WAVCIS:CSI03:1,2017-03-09T09:00:00Z,29.4412,-92.0613,10.0,-15.63,11144222 
WAVCIS,ioos:station:WAVCIS:CSI03:1,2017-03-09T10:00:00Z,29.4412,-92.0613,10.0,-15.34,11144222 
WAVCIS,ioos:station:WAVCIS:CSI03:1,2017-03-09T11:00:00Z,29.4412,-92.0613,10.0,-15.13,11144222 
WAVCIS,ioos:station:WAVCIS:CSI03:1,2017-03-09T12:00:00Z,29.4412,-92.0613,10.0,-15.54,11144222 
WAVCIS,ioos:station:WAVCIS:CSI03:1,2017-03-09T13:00:00Z,29.4412,-92.0613,10.0,-15.54,11144222 
WAVCIS,ioos:station:WAVCIS:CSI03:1,2017-03-09T14:00:00Z,29.4412,-92.0613,10.0,-15.28,11144222 
WAVCIS,ioos:station:WAVCIS:CSI03:1,2017-03-09T15:00:00Z,29.4412,-92.0613,10.0,-15.47,11144222 
WAVCIS,ioos:station:WAVCIS:CSI03:1,2017-03-09T16:00:00Z,29.4412,-92.0613,10.0,-15.32,11144222 
WAVCIS,ioos:station:WAVCIS:CSI03:1,2017-03-09T17:00:00Z,29.4412,-92.0613,10.0,-14.64,11144222 
WAVCIS,ioos:station:WAVCIS:CSI03:1,2017-03-09T18:00:00Z,29.4412,-92.0613,10.0,-15.29,11144222 
WAVCIS,ioos:station:WAVCIS:CSI03:1,2017-03-09T19:00:00Z,29.4412,-92.0613,10.0,-15.75,11144222 
WAVCIS,ioos:station:WAVCIS:CSI03:1,2017-03-09T20:00:00Z,29.4412,-92.0613,10.0,-16.39,11144222 
WAVCIS,ioos:station:WAVCIS:CSI03:1,2017-03-09T21:00:00Z,29.4412,-92.0613,10.0,-16.26,11144222 
WAVCIS,ioos:station:WAVCIS:CSI03:1,2017-03-09T22:00:00Z,29.4412,-92.0613,10.0,-16.97,11144222 
WAVCIS,ioos:station:WAVCIS:CSI03:1,2017-03-09T23:00:00Z,29.4412,-92.0613,10.0,-20.66,11144222 
WAVCIS,ioos:station:WAVCIS:CSI03:1,2017-03-10T00:00:00Z,29.4412,-92.0613,10.0,-22.16,11144222 
WAVCIS,ioos:station:WAVCIS:CSI03:1,2017-03-10T01:00:00Z,29.4412,-92.0613,10.0,-22.43,11144222 
WAVCIS,ioos:station:WAVCIS:CSI03:1,2017-03-10T02:00:00Z,29.4412,-92.0613,10.0,-17.29,11144222 
WAVCIS,ioos:station:WAVCIS:CSI03:1,2017-03-10T03:00:00Z,29.4412,-92.0613,10.0,-18.83,11144222 
WAVCIS,ioos:station:WAVCIS:CSI03:1,2017-03-10T04:00:00Z,29.4412,-92.0613,10.0,-18.84,11144222 
WAVCIS,ioos:station:WAVCIS:CSI03:1,2017-03-10T05:00:00Z,29.4412,-92.0613,10.0,-18.31,11144222 
WAVCIS,ioos:station:WAVCIS:CSI03:1,2017-03-10T06:00:00Z,29.4412,-92.0613,10.0,-19.28,11144222 
WAVCIS,ioos:station:WAVCIS:CSI03:1,2017-03-10T07:00:00Z,29.4412,-92.0613,10.0,-18.12,11144222 
WAVCIS,ioos:station:WAVCIS:CSI03:1,2017-03-10T08:00:00Z,29.4412,-92.0613,10.0,-18.04,11144222 
WAVCIS,ioos:station:WAVCIS:CSI03:1,2017-03-10T09:00:00Z,29.4412,-92.0613,10.0,-17.86,11144222 
WAVCIS,ioos:station:WAVCIS:CSI03:1,2017-03-10T10:00:00Z,29.4412,-92.0613,10.0,-17.89,11144222 
WAVCIS,ioos:station:WAVCIS:CSI03:1,2017-03-10T11:00:00Z,29.4412,-92.0613,10.0,-17.83,11144222 
WAVCIS,ioos:station:WAVCIS:CSI03:1,2017-03-10T12:00:00Z,29.4412,-92.0613,10.0,-17.61,11144222 
WAVCIS,ioos:station:WAVCIS:CSI03:1,2017-03-10T13:00:00Z,29.4412,-92.0613,10.0,-17.86,11144222 
WAVCIS,ioos:station:WAVCIS:CSI03:1,2017-03-10T14:00:00Z,29.4412,-92.0613,10.0,-18.22,11144222 
WAVCIS,ioos:station:WAVCIS:CSI03:1,2017-03-10T15:00:00Z,29.4412,-92.0613,10.0,-17.83,11144222 
WAVCIS,ioos:station:WAVCIS:CSI03:1,2017-03-10T16:00:00Z,29.4412,-92.0613,10.0,-17.28,11144222 
WAVCIS,ioos:station:WAVCIS:CSI03:1,2017-03-10T17:00:00Z,29.4412,-92.0613,10.0,-17.05,11144222 
WAVCIS,ioos:station:WAVCIS:CSI03:1,2017-03-10T18:00:00Z,29.4412,-92.0613,10.0,-17.64,11144222 
WAVCIS,ioos:station:WAVCIS:CSI03:1,2017-03-10T19:00:00Z,29.4412,-92.0613,10.0,-18.13,11144222 
WAVCIS,ioos:station:WAVCIS:CSI03:1,2017-03-10T20:00:00Z,29.4412,-92.0613,10.0,-18.38,11144222 
WAVCIS,ioos:station:WAVCIS:CSI03:1,2017-03-10T21:00:00Z,29.4412,-92.0613,10.0,-18.04,11144222 
WAVCIS,ioos:station:WAVCIS:CSI03:1,2017-03-10T22:00:00Z,29.4412,-92.0613,10.0,-17.88,11144222 
WAVCIS,ioos:station:WAVCIS:CSI03:1,2017-03-10T23:00:00Z,29.4412,-92.0613,10.0,-17.02,11144222 
WAVCIS,ioos:station:WAVCIS:CSI03:1,2017-03-11T00:00:00Z,29.4412,-92.0613,10.0,-18.29,11144222 
WAVCIS,ioos:station:WAVCIS:CSI03:1,2017-03-11T01:00:00Z,29.4412,-92.0613,10.0,-17.92,11144222 
WAVCIS,ioos:station:WAVCIS:CSI03:1,2017-03-11T02:00:00Z,29.4412,-92.0613,10.0,-19.09,11144222 
WAVCIS,ioos:station:WAVCIS:CSI03:1,2017-03-11T03:00:00Z,29.4412,-92.0613,10.0,-18.71,11144222 
WAVCIS,ioos:station:WAVCIS:CSI03:1,2017-03-11T04:00:00Z,29.4412,-92.0613,10.0,-18.17,11144222 
WAVCIS,ioos:station:WAVCIS:CSI03:1,2017-03-11T05:00:00Z,29.4412,-92.0613,10.0,-17.87,11144222 
WAVCIS,ioos:station:WAVCIS:CSI03:1,2017-03-11T06:00:00Z,29.4412,-92.0613,10.0,-17.69,11144222 
WAVCIS,ioos:station:WAVCIS:CSI03:1,2017-03-11T07:00:00Z,29.4412,-92.0613,10.0,-18.41,11144222 
WAVCIS,ioos:station:WAVCIS:CSI03:1,2017-03-11T08:00:00Z,29.4412,-92.0613,10.0,-18.86,11144222 
WAVCIS,ioos:station:WAVCIS:CSI03:1,2017-03-11T09:00:00Z,29.4412,-92.0613,10.0,-19.01,11144222 
WAVCIS,ioos:station:WAVCIS:CSI03:1,2017-03-11T10:00:00Z,29.4412,-92.0613,10.0,-18.35,11144222 
WAVCIS,ioos:station:WAVCIS:CSI03:1,2017-03-11T11:00:00Z,29.4412,-92.0613,10.0,-18.72,11144222 